User: anonymous   Login
Location: Maiden_LMO
(35.5760°N, 81.2120°W)
Time: 05:55:24
(UTC-05:00)
Language:

Cosmos 2278 Rocket - Orbit

View from above orbital plane
View from above orbital plane
View from above satellite
View from above satellite

Ground track
Ground track

The orbit data is extracted from the following two-line orbital elements,

1 23088U 94023B   17017.16635340 -.00000166  00000-0 -61520-4 0  9996
2 23088  70.9977 239.0260 0004829 304.8865  55.1803 14.14646615174182
Epoch (UTC): 17 January 2017 03:59:32
Eccentricity: 0.0004829
inclination: 70.9977°
perigee height: 840 km
apogee height: 847 km
right ascension of ascending node: 239.0260°
argument of perigee: 304.8865°
revolutions per day: 14.14646615
mean anomaly at epoch: 55.1803°
orbit number at epoch: 17418

The dashed part of the orbit path shows where the satellite is in the earth's shadow,  

DLR